Location: Unspecified
(38.7044°N, 0.0000°E)
Time: 09:07:23
(UTC+00:00)

ARIANE 6 FM1 Upper Stage - Visible Passes

Search period start: 04 April 2026 00:00
Search period end: 14 April 2026 00:00
Orbit: 524 x 605 km, 62.0° (Epoch: 29 March)

Date Brightness Start Highest point End Pass type
(mag) Time Alt. Az. Time Alt. Az. Time Alt. Az.
4 Apr 5.7 04:21:50 10° NNE 04:23:10 11° NE 04:24:31 10° ENE visible
5 Apr 5.5 04:20:37 10° N 04:23:02 15° NE 04:25:27 10° ENE visible
6 Apr 5.2 04:19:47 10° N 04:22:52 21° NE 04:25:55 10° E visible
6 Apr 3.9 19:55:49 10° S 19:57:59 25° SSE 19:57:59 25° SSE visible
7 Apr 4.6 04:19:07 10° NNW 04:22:38 29° NE 04:26:08 10° ESE visible
7 Apr 2.6 19:55:08 10° SSW 19:59:13 54° ESE 20:03:13 10° NE visible
7 Apr 5.4 21:35:43 10° W 21:38:29 17° NW 21:41:12 10° N visible
8 Apr 3.8 04:18:33 10° NNW 04:22:20 43° NE 04:26:08 10° ESE visible
8 Apr 2.5 19:54:38 10° SSW 19:58:49 84° ESE 20:02:55 10° NE visible
8 Apr 5.8 21:36:27 10° WNW 21:38:19 13° NW 21:40:10 10° NNW visible
9 Apr 2.9 04:18:04 10° NNW 04:22:01 66° NE 04:25:57 10° SE visible
9 Apr 3.1 19:54:19 10° SW 19:58:28 64° NW 20:02:31 10° NNE visible
10 Apr 5.8 02:40:27 10° NNE 02:42:10 12° NE 02:43:52 10° ENE visible
10 Apr 2.4 04:17:40 10° NW 04:21:38 81° WSW 04:25:36 10° SSE visible
10 Apr 3.9 19:54:09 10° WSW 19:58:07 42° NW 20:02:02 10° NNE visible
11 Apr 5.4 02:39:22 10° N 02:41:59 17° NE 02:44:36 10° E visible
11 Apr 2.6 04:17:23 10° NW 04:21:13 51° WSW 04:25:04 10° SSE visible
11 Apr 4.7 19:54:09 10° WSW 19:57:49 29° NW 20:01:25 10° NNE visible
12 Apr 4.9 02:38:34 10° N 02:41:46 23° NE 02:44:57 10° E visible
12 Apr 3.2 04:17:12 10° NW 04:20:46 32° WSW 04:24:20 10° S visible
12 Apr 5.3 19:54:20 10° W 19:57:33 21° NW 20:00:44 10° N visible
13 Apr 5.1 02:44:18 14° ESE 02:44:18 14° ESE 02:45:04 10° ESE visible
13 Apr 3.8 04:20:44 21° SW 04:20:44 21° SW 04:23:19 10° SSW visible
13 Apr 5.6 19:54:46 10° W 19:57:20 16° NW 19:59:53 10° N visible
